Weather History for EBLB - July, 2013

Change the Weather History Date:

Monday, July 15, 2013

  Actual Average Record
Temperature  
Mean Temperature 62 °F -  
Max Temperature 75 °F 60 °F 84 °F (2007)
Min Temperature 48 °F 49 °F 42 °F (2008)
Degree Days  
Heating Degree Days 4    
Growing Degree Days 12 (Base 50)    
Moisture  
Dew Point 53 °F    
Average Humidity 72    
Maximum Humidity 100    
Minimum Humidity 35    
Precipitation  
Precipitation 0.00 in - - ()
Sea Level Pressure  
Sea Level Pressure 30.22 in    
Wind  
Wind Speed 2 mph ()    
Max Wind Speed 8 mph    
Max Gust Speed -    
Visibility 8.0 miles    
Events      
Averages and records for this station are not official NWS values.
T = Trace of Precipitation, MM = Missing Value Source: Averaged Metar Reports

Daily Weather History Graph

Daily Weather History Graph

Search for Another Location

Airport or City:

Trip Planner

Search our weather history database for the weather conditions in past years. The results will help you decide how hot, cold, wet, or windy it might be!

Date:

Astronomy

Jul. 15, 2013 Rise Set
Actual Time 5:40 AM CEST 9:41 PM CEST
Civil Twilight 4:57 AM CEST 10:23 PM CEST
Nautical Twilight 3:57 AM CEST 11:23 PM CEST
Astronomical Twilight 2:13 AM CEST 1:20 AM CEST
Moon 1:34 PM CEST (7/15) No Moon Set
Length of Visible Light 17h 26m
Length of Day
16h 00m
Waxing Crescent, 42% of the Moon is Illuminated
Jul 15
Waxing Crescent
Jul 16
First Quarter
Jul 22
Full
Jul 29
Last Quarter
Aug 6
New

Hourly Weather History & Observations

Time (CEST) Temp. Dew Point Humidity Pressure Visibility Wind Dir Wind Speed Gust Speed Precip Events Conditions
12:00 AM 53 °F 51 °F 92% 30.25 in 6 mi Calm Calm - -  
12:25 AM 51.8 °F 50.0 °F 94% 30.24 in 6.2 mi Variable 1.2 mph - N/A   Clear
1:07 AM 50.0 °F 50.0 °F 100% 30.24 in 4.3 mi Calm Calm - N/A   Clear
1:19 AM 50.0 °F 48.2 °F 94% 30.24 in 5.0 mi Calm Calm - N/A   Partly Cloudy
1:25 AM 50.0 °F 50.0 °F 100% 30.24 in 5.6 mi Calm Calm - N/A   Scattered Clouds
2:00 AM 49 °F 49 °F 99% 30.25 in 6 mi 4.5 mph - -   Partly Cloudy
2:25 AM 48.2 °F 48.2 °F 100% 30.24 in 6.2 mi Calm Calm - N/A   Clear
3:00 AM 49 °F 49 °F 98% 30.25 in 7 mi Calm Calm - -   Scattered Clouds
3:25 AM 48.2 °F 48.2 °F 100% 30.24 in 6.2 mi Calm Calm - N/A   Scattered Clouds
4:00 AM 48 °F 47 °F 96% 30.25 in 6 mi 2.2 mph - -   Scattered Clouds
4:25 AM 48.2 °F 48.2 °F 100% 30.21 in 6.2 mi Calm Calm - N/A   Partly Cloudy
5:00 AM 50 °F 50 °F 100% 30.24 in 6 mi Calm Calm - -   Mostly Cloudy
5:25 AM 50.0 °F 50.0 °F 100% 30.21 in 5.6 mi Calm Calm - N/A   Mostly Cloudy
6:00 AM 49 °F 48 °F 95% 30.24 in 6 mi Calm Calm - -   Mostly Cloudy
6:25 AM 50.0 °F 50.0 °F 100% 30.24 in 6.2 mi Calm Calm - N/A   Mostly Cloudy
7:00 AM 50 °F 49 °F 97% 30.24 in 6 mi Calm Calm - -   Partly Cloudy
7:25 AM 51.8 °F 51.8 °F 100% 30.24 in 5.6 mi Calm Calm - N/A   Mostly Cloudy
8:00 AM 56 °F 55 °F 95% 30.22 in 7 mi Calm Calm - -   Scattered Clouds
8:25 AM 59.0 °F 57.2 °F 94% 30.24 in 6.2 mi Calm Calm - N/A   Scattered Clouds
9:00 AM 61 °F 58 °F 87% 30.20 in 7 mi Calm Calm - -   Partly Cloudy
9:25 AM 64.4 °F 55.4 °F 73% 30.24 in 6.2 mi Variable 1.2 mph - N/A   Scattered Clouds
10:00 AM 68 °F 57 °F 60% 30.18 in 9 mi 2.3 mph - -   Scattered Clouds
10:25 AM 68.0 °F 57.2 °F 68% 30.24 in 6.2 mi Variable 3.5 mph - N/A   Scattered Clouds
11:00 AM 68 °F 57 °F 60% 30.18 in 10 mi West 4.5 mph - -   Partly Cloudy
11:25 AM 69.8 °F 53.6 °F 56% 30.24 in 6.2 mi West 5.8 mph - N/A   Scattered Clouds
12:00 PM 70 °F 53 °F 44% 30.18 in 14 mi West 3.5 mph - -   Scattered Clouds
12:25 PM 69.8 °F 55.4 °F 60% 30.24 in 6.2 mi WSW 8.1 mph - N/A   Partly Cloudy
1:00 PM 71 °F 52 °F 40% 30.17 in 19 mi WNW 3.5 mph - -   Scattered Clouds
1:25 PM 71.6 °F 50.0 °F 46% 30.24 in 6.2 mi WNW 8.1 mph - N/A   Partly Cloudy
2:00 PM 73 °F 55 °F 42% 30.17 in 16 mi NNW 4.5 mph - -   Scattered Clouds
2:25 PM 71.6 °F 53.6 °F 53% 30.24 in 6.2 mi NW 8.1 mph - N/A   Scattered Clouds
3:00 PM 74 °F 56 °F 43% 30.16 in 12 mi NW 6.7 mph - -   Partly Cloudy
3:25 PM 73.4 °F 51.8 °F 47% 30.24 in 6.2 mi NW 5.8 mph - N/A   Partly Cloudy
4:00 PM 74 °F 52 °F 35% 30.16 in 12 mi West 3.5 mph - -   Scattered Clouds
4:25 PM 75.2 °F 51.8 °F 44% 30.24 in 6.2 mi West 6.9 mph - N/A   Partly Cloudy
5:00 PM 75 °F 53 °F 35% 30.15 in 14 mi NW 4.5 mph - -   Scattered Clouds
5:25 PM 73.4 °F 51.8 °F 47% 30.24 in 6.2 mi NNW 4.6 mph - N/A   Clear
6:00 PM 75 °F 53 °F 36% 30.15 in 16 mi NNW 4.5 mph - -  
6:25 PM 73.4 °F 55.4 °F 53% 30.24 in 6.2 mi NNW 6.9 mph - N/A   Partly Cloudy
7:00 PM 72 °F 54 °F 43% 30.16 in 14 mi NW 3.5 mph - -   Scattered Clouds
7:25 PM 73.4 °F 55.4 °F 53% 30.24 in 6.2 mi NNW 6.9 mph - N/A   Clear
8:00 PM 71 °F 55 °F 46% 30.17 in 12 mi NW 6.7 mph - -  
8:25 PM 69.8 °F 55.4 °F 60% 30.24 in 6.2 mi NNW 4.6 mph - N/A   Clear
9:00 PM 68 °F 55 °F 53% 30.18 in 12 mi 4.5 mph - -  
9:25 PM 64.4 °F 55.4 °F 73% 30.24 in 6.2 mi Variable 2.3 mph - N/A   Clear
10:00 PM 61 °F 54 °F 71% 30.22 in 10 mi Calm Calm - -  
10:25 PM 59.0 °F 53.6 °F 82% 30.24 in 6.2 mi Calm Calm - N/A   Clear
11:00 PM 57 °F 53 °F 83% 30.24 in 8 mi Calm Calm - -  
11:25 PM 55.4 °F 51.8 °F 88% 30.27 in 6.2 mi Calm Calm - N/A   Clear